CW4221 Weather Reports


Display with metric or nautical units.
time (UTC)temp
F
wind
direction
speed
MPH
gust
MPH
rain 1hr
in
rain 24hr
in
rain mn
in
humidity
%
barometer
mb
20200715045819 79 146 3.0 10.0 0.00 0.00 0.00 86 1014.3
20200715041326 79 163 3.0 9.0 0.00 0.00 0.00 85 1014.1
20200715040821 79 127 3.0 9.0 0.00 0.00 0.00 85 1014.1
20200715040320 80 98 3.0 7.0 0.00 0.00 0.00 84 1014.3
20200715035815 80 73 3.0 9.0 0.00 0.00 0.00 84 1014.3
20200715035311 80 145 3.0 10.0 0.00 0.00 0.00 84 1014.4
20200715034828 80 150 2.0 10.0 0.00 0.00 0.00 84 1014.5
20200715034326 80 109 4.0 9.0 0.00 0.00 0.00 84 1014.5
20200715033821 80 134 2.0 8.0 0.00 0.00 0.00 84 1014.5
20200715033318 80 102 4.0 8.0 0.00 0.00 0.00 84 1014.4
20200715032818 80 96 4.0 8.0 0.00 0.00 0.00 83 1014.4
20200715032314 80 78 3.0 7.0 0.00 0.00 0.00 83 1014.3
20200715031810 80 126 3.0 8.0 0.00 0.00 0.00 83 1014.3
20200715031327 80 106 3.0 8.0 0.00 0.00 0.00 83 1014.3
20200715030824 80 144 3.0 8.0 0.00 0.00 0.00 83 1014.3
20200715030321 81 125 2.0 8.0 0.00 0.00 0.00 82 1014.2
20200715025815 81 130 3.0 7.0 0.00 0.00 0.00 82 1014.2
20200715025314 81 136 3.0 7.0 0.00 0.00 0.00 82 1014.2
20200715024829 81 124 2.0 6.0 0.00 0.00 0.00 82 1014.2
20200715024325 81 117 3.0 7.0 0.00 0.00 0.00 81 1014.1
20200715023821 81 136 3.0 7.0 0.00 0.00 0.00 81 1014.0
20200715023315 81 120 3.0 8.0 0.00 0.00 0.00 81 1014.0
20200715022810 82 111 3.0 9.0 0.00 0.00 0.00 80 1014.0
20200715022327 82 185 2.0 9.0 0.00 0.00 0.00 80 1014.0
20200715021827 82 141 3.0 10.0 0.00 0.00 0.00 80 1013.9
20200715021323 82 146 3.0 9.0 0.00 0.00 0.00 80 1013.9
20200715020820 82 138 2.0 7.0 0.00 0.00 0.00 80 1013.8
20200715020316 82 102 2.0 7.0 0.00 0.00 0.00 80 1013.8
20200715015810 82 144 2.0 7.0 0.00 0.00 0.00 79 1013.7
20200715015324 82 146 2.0 7.0 0.00 0.00 0.00 79 1013.8
20200715014820 83 157 3.0 8.0 0.00 0.00 0.00 78 1013.8
20200715014320 83 182 3.0 8.0 0.00 0.00 0.00 78 1013.8
20200715013817 83 121 2.0 8.0 0.00 0.00 0.00 78 1013.8
20200715013313 83 100 3.0 8.0 0.00 0.00 0.00 77 1013.8
20200715012829 83 105 2.0 8.0 0.00 0.00 0.00 77 1013.7
20200715012323 83 144 2.0 6.0 0.00 0.00 0.00 77 1013.8
20200715011818 84 138 3.0 6.0 0.00 0.00 0.00 76 1013.8
20200715011314 84 175 2.0 10.0 0.00 0.00 0.00 76 1013.7
20200715010814 84 153 3.0 11.0 0.00 0.00 0.00 76 1013.7
20200715010311 84 121 5.0 11.0 0.00 0.00 0.00 75 1013.6
20200715005826 84 171 4.0 11.0 0.00 0.00 0.00 75 1013.7
20200715005322 85 205 4.0 10.0 0.00 0.00 0.00 75 1013.6
20200715004817 85 149 3.0 10.0 0.00 0.00 0.00 75 1013.6
20200715004313 85 111 4.0 12.0 0.00 0.00 0.00 74 1013.6
20200715003828 85 109 2.0 12.0 0.00 0.00 0.00 74 1013.6
20200715003323 85 132 5.0 11.0 0.00 0.00 0.00 74 1013.6
20200715002823 85 101 5.0 10.0 0.00 0.00 0.00 74 1013.6
20200715002318 85 146 5.0 10.0 0.00 0.00 0.00 73 1013.6
20200715001814 86 162 4.0 11.0 0.00 0.00 0.00 73 1013.6
20200715001329 86 153 5.0 11.0 0.00 0.00 0.00 73 1013.5
20200715000824 86 130 6.0 11.0 0.00 0.00 0.00 73 1013.5
20200715000319 86 154 5.0 11.0 0.00 0.00 0.00 72 1013.4
20200714235813 87 117 5.0 9.0 0.00 0.00 0.00 71 1013.3
20200714235312 87 118 4.0 13.0 0.00 0.00 0.00 71 1013.3
20200714234827 87 135 5.0 13.0 0.00 0.00 0.00 71 1013.3
20200714234322 87 94 7.0 15.0 0.00 0.00 0.00 70 1013.3
20200714233818 87 149 5.0 15.0 0.00 0.00 0.00 71 1013.3
20200714233313 87 134 4.0 12.0 0.00 0.00 0.00 71 1013.3
20200714232829 87 145 5.0 11.0 0.00 0.00 0.00 71 1013.4
20200714232325 87 204 5.0 12.0 0.00 0.00 0.00 70 1013.4
20200714231826 87 147 6.0 12.0 0.00 0.00 0.00 70 1013.3
20200714231321 87 94 3.0 16.0 0.00 0.00 0.00 70 1013.4
20200714230816 88 205 5.0 17.0 0.00 0.00 0.00 69 1013.3
20200714230328 88 162 6.0 17.0 0.00 0.00 0.00 68 1013.3
20200714225823 88 126 6.0 11.0 0.00 0.00 0.00 68 1013.3
20200714225318 88 134 4.0 14.0 0.00 0.00 0.00 68 1013.3
20200714224814 88 123 5.0 12.0 0.00 0.00 0.00 69 1013.3
20200714224314 88 154 3.0 15.0 0.00 0.00 0.00 69 1013.4
20200714223811 88 113 3.0 14.0 0.00 0.00 0.00 68 1013.4
20200714223325 88 151 4.0 12.0 0.00 0.00 0.00 68 1013.4
20200714222822 89 91 5.0 11.0 0.00 0.00 0.00 67 1013.4
20200714222317 88 130 4.0 14.0 0.00 0.00 0.00 68 1013.4
20200714221812 88 139 4.0 18.0 0.00 0.00 0.00 68 1013.4
20200714221327 88 134 7.0 18.0 0.00 0.00 0.00 66 1013.3
20200714220823 88 168 3.0 18.0 0.00 0.00 0.00 67 1013.3
20200714220322 89 170 6.0 12.0 0.00 0.00 0.00 67 1013.4
20200714215816 89 79 7.0 13.0 0.00 0.00 0.00 66 1013.4
20200714215311 89 97 6.0 13.0 0.00 0.00 0.00 66 1013.4
20200714214827 89 93 6.0 13.0 0.00 0.00 0.00 65 1013.4
20200714214323 89 117 5.0 12.0 0.00 0.00 0.00 66 1013.4
20200714213817 89 117 6.0 12.0 0.00 0.00 0.00 65 1013.4
20200714213313 89 108 5.0 12.0 0.00 0.00 0.00 65 1013.4
20200714212812 89 101 4.0 11.0 0.00 0.00 0.00 66 1013.4
20200714212326 89 113 5.0 11.0 0.00 0.00 0.00 67 1013.4
20200714211823 89 42 5.0 11.0 0.00 0.00 0.00 66 1013.4
20200714211318 89 78 4.0 12.0 0.00 0.00 0.00 66 1013.5
20200714210814 89 89 6.0 13.0 0.00 0.00 0.00 67 1013.5
20200714210329 88 102 6.0 13.0 0.00 0.00 0.00 67 1013.5
20200714205824 88 96 7.0 13.0 0.00 0.00 0.00 67 1013.6
20200714205324 88 105 6.0 12.0 0.00 0.00 0.00 67 1013.7
20200714204820 88 130 6.0 12.0 0.00 0.00 0.00 66 1013.7
20200714204315 88 85 5.0 13.0 0.00 0.00 0.00 66 1013.9
20200714203810 88 105 7.0 13.0 0.00 0.00 0.00 66 1013.9
20200714203324 88 113 6.0 12.0 0.00 0.00 0.00 65 1014.0
20200714202821 88 138 5.0 11.0 0.00 0.00 0.00 67 1014.0
20200714202317 88 141 6.0 12.0 0.00 0.00 0.00 68 1013.9
20200714201817 88 130 6.0 12.0 0.00 0.00 0.00 67 1013.8
20200714201312 88 159 3.0 11.0 0.00 0.00 0.00 69 1013.8
20200714200827 88 115 7.0 11.0 0.00 0.00 0.00 67 1014.0
20200714200324 87 186 4.0 14.0 0.00 0.00 0.00 68 1014.0
20200714195818 87 121 6.0 14.0 0.00 0.00 0.00 69 1014.0
20200714195313 87 141 6.0 14.0 0.00 0.00 0.00 67 1014.2
20200714194828 87 126 5.0 14.0 0.00 0.00 0.00 67 1014.2
20200714194323 88 119 6.0 13.0 0.00 0.00 0.00 67 1014.2
20200714193822 88 85 5.0 15.0 0.00 0.00 0.00 66 1014.1
20200714193318 89 121 4.0 15.0 0.00 0.00 0.00 65 1014.2
20200714192814 89 192 6.0 12.0 0.00 0.00 0.00 65 1014.3
20200714192330 88 175 5.0 12.0 0.00 0.00 0.00 67 1014.3
20200714191824 87 172 6.0 11.0 0.00 0.00 0.00 67 1014.3
20200714191321 87 186 5.0 10.0 0.00 0.00 0.00 67 1014.4
20200714190817 88 119 3.0 10.0 0.00 0.00 0.00 67 1014.4
20200714190316 88 159 4.0 11.0 0.00 0.00 0.00 66 1014.3
20200714185811 87 137 4.0 14.0 0.00 0.00 0.00 68 1014.2
20200714185327 87 120 6.0 14.0 0.00 0.00 0.00 68 1014.2
20200714184824 87 139 5.0 12.0 0.00 0.00 0.00 68 1014.2
20200714184320 87 227 5.0 12.0 0.00 0.00 0.00 67 1014.3
20200714183816 87 163 7.0 11.0 0.00 0.00 0.00 66 1014.3
20200714183330 88 270 5.0 13.0 0.00 0.00 0.00 67 1014.2
20200714182829 87 159 7.0 12.0 0.00 0.00 0.00 67 1014.3
20200714182325 87 180 6.0 12.0 0.00 0.00 0.00 67 1014.4
20200714181820 88 252 6.0 14.0 0.00 0.00 0.00 66 1014.5
20200714181316 87 213 7.0 12.0 0.00 0.00 0.00 65 1014.6
20200714180812 87 151 5.0 15.0 0.00 0.00 0.00 67 1014.6
20200714180328 87 153 5.0 12.0 0.00 0.00 0.00 67 1014.8
20200714175823 87 122 6.0 12.0 0.00 0.00 0.00 67 1014.7
20200714175324 87 219 6.0 12.0 0.00 0.00 0.00 68 1014.7
20200714174819 86 103 5.0 13.0 0.00 0.00 0.00 68 1014.6
20200714174313 85 113 7.0 13.0 0.00 0.00 0.00 69 1014.6
20200714173828 85 107 4.0 16.0 0.00 0.00 0.00 69 1014.7
20200714173324 85 117 7.0 16.0 0.00 0.00 0.00 68 1014.7
20200714172819 86 171 6.0 12.0 0.00 0.00 0.00 66 1014.6
20200714172314 87 92 4.0 16.0 0.00 0.00 0.00 69 1014.6
20200714171815 85 167 8.0 18.0 0.00 0.00 0.00 67 1014.6
20200714171311 85 161 8.0 18.0 0.00 0.00 0.00 68 1014.6
20200714170826 86 77 6.0 13.0 0.00 0.00 0.00 68 1014.7
20200714170321 86 104 8.0 13.0 0.00 0.00 0.00 68 1014.7
20200714165816 85 76 5.0 12.0 0.00 0.00 0.00 70 1014.8
20200714165311 85 192 7.0 12.0 0.00 0.00 0.00 69 1014.8
20200714164826 84 138 6.0 11.0 0.00 0.00 0.00 69 1014.8
20200714164321 84 142 5.0 11.0 0.00 0.00 0.00 70 1015.1
20200714163820 84 190 4.0 11.0 0.00 0.00 0.00 70 1015.3
20200714163315 83 161 5.0 11.0 0.00 0.00 0.00 71 1015.2
20200714162811 83 194 5.0 16.0 0.00 0.00 0.00 71 1015.1
20200714162327 83 124 5.0 16.0 0.00 0.00 0.00 71 1015.1
20200714161823 83 143 4.0 8.0 0.00 0.00 0.00 71 1015.1
20200714161319 83 106 5.0 10.0 0.00 0.00 0.00 71 1015.2
20200714160815 83 142 4.0 10.0 0.00 0.00 0.00 70 1015.4
20200714160315 83 196 5.0 11.0 0.00 0.00 0.00 70 1015.4
20200714155829 83 269 4.0 11.0 0.00 0.00 0.00 70 1015.5
20200714155324 83 237 4.0 11.0 0.00 0.00 0.00 71 1015.6
20200714154818 82 198 6.0 11.0 0.00 0.00 0.00 71 1015.7
20200714154313 82 198 4.0 9.0 0.00 0.00 0.00 70 1015.5
20200714153828 82 151 3.0 10.0 0.00 0.00 0.00 72 1015.4
20200714153324 82 124 6.0 12.0 0.00 0.00 0.00 70 1015.3
20200714152825 82 220 6.0 12.0 0.00 0.00 0.00 69 1015.2
20200714152322 82 155 6.0 14.0 0.00 0.00 0.00 70 1015.2
20200714151818 82 117 4.0 13.0 0.00 0.00 0.00 70 1015.2
20200714151316 82 131 6.0 13.0 0.00 0.00 0.00 69 1015.1
20200714150812 82 135 4.0 11.0 0.00 0.00 0.00 69 1015.2
20200714150327 82 222 6.0 11.0 0.00 0.00 0.00 69 1015.3
20200714145820 81 121 6.0 14.0 0.00 0.00 0.00 71 1015.3
20200714145320 81 136 6.0 15.0 0.00 0.00 0.00 70 1015.4
20200714144815 81 207 7.0 12.0 0.00 0.00 0.00 70 1015.4
20200714144312 81 173 6.0 13.0 0.00 0.00 0.00 71 1015.3
20200714143828 81 121 6.0 13.0 0.00 0.00 0.00 71 1015.4
20200714143322 80 143 3.0 10.0 0.00 0.00 0.00 72 1015.4
20200714142818 80 126 4.0 10.0 0.00 0.00 0.00 72 1015.4
20200714142314 80 188 4.0 12.0 0.00 0.00 0.00 71 1015.5
20200714141813 80 91 5.0 12.0 0.00 0.00 0.00 73 1015.6
20200714141329 79 53 5.0 10.0 0.00 0.00 0.00 72 1015.6
20200714140824 79 186 4.0 10.0 0.00 0.00 0.00 73 1015.7
20200714140319 79 214 4.0 11.0 0.00 0.00 0.00 73 1015.7
20200714135814 78 88 3.0 8.0 0.00 0.00 0.00 75 1015.8
20200714135325 78 167 4.0 9.0 0.00 0.00 0.00 75 1015.9
20200714134820 77 144 4.0 9.0 0.00 0.00 0.00 75 1015.9
20200714134315 77 186 4.0 10.0 0.00 0.00 0.00 75 1015.9
20200714133814 77 116 3.0 10.0 0.00 0.00 0.00 74 1015.9
20200714133329 77 118 3.0 8.0 0.00 0.00 0.00 75 1015.7
20200714132826 77 146 4.0 8.0 0.00 0.00 0.00 75 1015.7
20200714132322 77 173 3.0 7.0 0.00 0.00 0.00 76 1015.7
20200714131817 77 87 4.0 9.0 0.00 0.00 0.00 76 1015.6
20200714131313 76 140 2.0 9.0 0.00 0.00 0.00 77 1015.8
20200714130829 76 221 3.0 6.0 0.00 0.00 0.00 77 1015.7
20200714130328 76 209 3.0 9.0 0.00 0.00 0.00 78 1015.8
20200714125822 75 193 3.0 9.0 0.00 0.00 0.00 78 1015.7
20200714125317 75 175 3.0 10.0 0.00 0.00 0.00 78 1015.8
20200714124814 75 185 1.0 6.0 0.00 0.00 0.00 79 1015.8
20200714124310 75 193 1.0 6.0 0.00 0.00 0.00 79 1015.8
20200714123825 75 206 2.0 8.0 0.00 0.00 0.00 79 1015.7
20200714123321 74 122 2.0 8.0 0.00 0.00 0.00 79 1015.9
20200714122821 74 108 2.0 4.0 0.00 0.00 0.00 80 1015.8
20200714122318 74 211 2.0 4.0 0.00 0.00 0.00 80 1015.8
20200714121813 74 263 2.0 5.0 0.00 0.00 0.00 80 1015.8
20200714121329 74 165 2.0 5.0 0.00 0.00 0.00 81 1015.7
20200714120826 73 210 2.0 8.0 0.00 0.00 0.00 81 1015.8
20200714120322 73 144 3.0 8.0 0.00 0.00 0.00 81 1015.7
20200714115816 73 186 2.0 6.0 0.00 0.00 0.00 81 1015.8
20200714115315 73 195 2.0 5.0 0.00 0.00 0.00 81 1015.8
20200714114811 73 212 2.0 7.0 0.00 0.00 0.00 81 1015.9
20200714114324 73 208 2.0 7.0 0.00 0.00 0.00 81 1015.6
20200714113820 73 220 2.0 7.0 0.00 0.00 0.00 81 1015.8
20200714113314 73 206 2.0 5.0 0.00 0.00 0.00 80 1015.7
20200714112809 73 198 2.0 8.0 0.00 0.00 0.00 80 1015.6
20200714112325 73 204 2.0 8.0 0.00 0.00 0.00 80 1015.5
20200714111821 73 189 2.0 8.0 0.00 0.00 0.00 80 1015.4
20200714111320 73 207 2.0 10.0 0.00 0.00 0.00 80 1015.3
20200714110816 73 194 3.0 10.0 0.00 0.00 0.00 80 1015.1
20200714110311 73 150 2.0 7.0 0.00 0.00 0.00 81 1015.1
20200714105824 73 182 2.0 7.0 0.00 0.00 0.00 81 1015.1
20200714105321 73 123 1.0 7.0 0.00 0.00 0.00 81 1015.1
20200714104816 72 186 2.0 5.0 0.00 0.00 0.00 81 1014.9
20200714104312 72 142 2.0 7.0 0.00 0.00 0.00 82 1014.8
20200714103812 72 148 2.0 8.0 0.00 0.00 0.00 83 1014.7
20200714103328 72 145 3.0 8.0 0.00 0.00 0.00 83 1014.7
20200714102821 72 100 2.0 6.0 0.00 0.00 0.00 84 1014.7
20200714102316 72 121 2.0 7.0 0.00 0.00 0.00 84 1014.7
20200714101812 72 172 3.0 7.0 0.00 0.00 0.00 85 1014.7
20200714101329 72 96 1.0 7.0 0.00 0.00 0.00 85 1014.7
20200714100823 72 141 2.0 5.0 0.00 0.00 0.00 85 1014.8
20200714100323 71 152 1.0 8.0 0.00 0.00 0.00 85 1014.9
20200714095817 71 187 2.0 8.0 0.00 0.00 0.00 86 1014.9
20200714095313 72 126 2.0 3.0 0.00 0.00 0.00 86 1015.0
20200714094827 72 178 1.0 3.0 0.00 0.00 0.00 86 1015.0
20200714094322 71 225 1.0 3.0 0.00 0.00 0.00 86 1015.1
20200714093818 72 184 1.0 4.0 0.00 0.00 0.00 86 1015.1
20200714093315 72 184 1.0 7.0 0.00 0.00 0.00 86 1015.1
20200714092815 71 193 1.0 4.0 0.00 0.00 0.00 87 1015.1
20200714092331 71 173 1.0 2.0 0.00 0.00 0.00 88 1015.1
20200714091324 71 173 1.0 2.0 0.00 0.00 0.00 88 1014.8
20200714090820 71 173 0.0 2.0 0.00 0.00 0.00 88 1014.8
20200714090315 71 173 0.0 3.0 0.00 0.00 0.00 88 1014.6
20200714085828 71 208 1.0 3.0 0.00 0.00 0.00 88 1014.5
20200714085325 71 98 0.0 4.0 0.00 0.00 0.00 88 1014.5
20200714084824 71 194 0.0 4.0 0.00 0.00 0.00 88 1014.5
20200714084319 71 117 1.0 3.0 0.00 0.00 0.00 88 1014.4
20200714083816 71 103 2.0 3.0 0.00 0.00 0.00 88 1014.3
20200714083313 71 151 1.0 2.0 0.00 0.00 0.00 89 1014.4
20200714082829 71 151 1.0 2.0 0.00 0.00 0.00 89 1014.4
20200714082325 71 151 0.0 2.0 0.00 0.00 0.00 89 1014.4
20200714081821 71 151 0.0 3.0 0.00 0.00 0.00 88 1014.3
20200714081322 71 151 1.0 3.0 0.00 0.00 0.00 88 1014.4
20200714080818 71 151 1.0 3.0 0.00 0.00 0.00 88 1014.4
20200714080314 71 151 0.0 2.0 0.00 0.00 0.00 88 1014.4
20200714075830 71 151 1.0 2.0 0.00 0.00 0.00 88 1014.4
20200714075327 71 151 0.0 2.0 0.00 0.00 0.00 88 1014.3
20200714074824 71 151 1.0 2.0 0.00 0.00 0.00 88 1014.4
20200714074320 71 151 0.0 2.0 0.00 0.00 0.00 88 1014.4
20200714073820 71 151 1.0 2.0 0.00 0.00 0.00 88 1014.4
20200714073316 71 151 1.0 3.0 0.00 0.00 0.00 88 1014.4
20200714072811 71 151 1.0 3.0 0.00 0.00 0.00 87 1014.3
20200714072327 71 170 0.0 2.0 0.00 0.00 0.00 87 1014.3
20200714071822 71 170 1.0 3.0 0.00 0.00 0.00 87 1014.3
20200714071318 71 215 0.0 3.0 0.00 0.00 0.00 86 1014.4
20200714070813 71 91 0.0 4.0 0.00 0.00 0.00 86 1014.3
20200714070313 71 194 0.0 4.0 0.00 0.00 0.00 86 1014.3
20200714065827 71 194 1.0 4.0 0.00 0.00 0.00 86 1014.3
20200714065322 71 197 1.0 3.0 0.00 0.00 0.00 86 1014.3
20200714064819 71 132 1.0 3.0 0.00 0.00 0.00 85 1014.4
20200714064314 72 133 1.0 4.0 0.00 0.00 0.00 86 1014.5
20200714063830 72 129 0.0 4.0 0.00 0.00 0.00 85 1014.6
20200714063326 72 157 1.0 4.0 0.00 0.00 0.00 85 1014.6
20200714062824 72 128 1.0 4.0 0.00 0.00 0.00 85 1014.6
20200714062319 72 128 2.0 4.0 0.00 0.00 0.00 85 1014.7
20200714061815 72 178 1.0 5.0 0.00 0.00 0.00 85 1014.7
20200714061311 72 196 1.0 5.0 0.00 0.00 0.00 85 1014.8
20200714060827 72 159 1.0 5.0 0.00 0.00 0.00 85 1014.9
20200714060324 71 176 2.0 4.0 0.00 0.00 0.00 85 1014.8
20200714055819 71 160 1.0 3.0 0.00 0.00 0.00 84 1014.9
20200714055319 71 204 1.0 3.0 0.00 0.00 0.00 85 1015.0
20200714054815 71 202 1.0 3.0 0.00 0.00 0.00 85 1015.0
20200714054329 71 143 0.0 2.0 0.00 0.00 0.00 85 1015.1
20200714053821 71 143 1.0 3.0 0.00 0.00 0.00 84 1015.1
20200714053317 71 143 1.0 3.0 0.00 0.00 0.00 85 1015.1
20200714052813 71 207 0.0 2.0 0.00 0.00 0.00 84 1015.1
20200714052329 71 207 1.0 2.0 0.00 0.00 0.00 84 1015.2
20200714051826 71 207 1.0 2.0 0.00 0.00 0.00 84 1015.2
20200714051326 72 207 1.0 2.0 0.00 0.00 0.00 83 1015.3
20200714050823 72 207 0.0 6.0 0.00 0.00 0.00 83 1015.3
20200714050320 72 115 1.0 6.0 0.00 0.00 0.00 82 1015.3